USA 270

Last updated on Mon Sep 07 2026 00:02:59 GMT+0000 (Coordinated Universal Time)

1 41744U 16052A 26249.40298138 -.00000365 00000+0 00000+0 0 9995 2 41744 4.3994 76.1129 0008236 112.6844 68.0929 1.00274733 28946
UTC large
Height (km)
Speed (km/s)
/
Latitude / Longitude
Inclination (degrees)
Orbital Period (minutes)
Azimuth
Elevation
Range (km)
Doppler Factor

Next 0 passes for location: London (51.5072 / 0.1276)

No passes found over London.
USA 270